This is the latest recevied weather packets stored in our database for station/object WD0REW. If no packets are shown the sender has not sent any weather packets the latest 10 day(s).
| Time | Temp. | Humidity | Pressure | Rain* | Wind** | Luminosity | Snow |
|---|---|---|---|---|---|---|---|
| 1777497145 | 17.22° C | 51% | 1017.3 hPa | 0 mm | - | 172 W/m² | - |
| 1777496842 | 16.67° C | 51% | 1017.4 hPa | 0 mm | - | 157 W/m² | - |
| 1777496539 | 17.22° C | 48% | 1017.6 hPa | 0 mm | - | 99 W/m² | - |
| 1777496235 | 17.22° C | 48% | 1017.7 hPa | 0 mm | - | 93 W/m² | - |
| 1777495931 | 17.22° C | 49% | 1017.7 hPa | 0 mm | - | 74 W/m² | - |
| 1777495627 | 17.22° C | 47% | 1018 hPa | 0 mm | - | 69 W/m² | - |
| 1777495323 | 17.78° C | 47% | 1018.2 hPa | 0 mm | - | 64 W/m² | - |
| 1777495021 | 17.78° C | 50% | 1017.8 hPa | 0 mm | - | 73 W/m² | - |
| 1777494718 | 17.78° C | 49% | 1018.2 hPa | 0 mm | - | 130 W/m² | - |
| 1777494415 | 18.89° C | 48% | 1018.2 hPa | 0 mm | - | 576 W/m² | - |
| 1777494111 | 18.89° C | 54% | 1018.2 hPa | 0 mm | - | 597 W/m² | - |
| 1777493809 | 18.33° C | 50% | 1018.3 hPa | 0 mm | - | 608 W/m² | - |
| 1777493507 | 18.33° C | 53% | 1018.2 hPa | 0 mm | - | 628 W/m² | - |
| 1777493203 | 18.33° C | 50% | 1018 hPa | 0 mm | - | 626 W/m² | - |
| 1777492900 | 18.89° C | 49% | 1018 hPa | 0 mm | - | 630 W/m² | - |
| 1777492597 | 18.33° C | 52% | 1018 hPa | 0 mm | - | 667 W/m² | - |
| 1777492292 | 17.78° C | 50% | 1018.3 hPa | 0 mm | - | 658 W/m² | - |
| 1777491989 | 17.78° C | 52% | 1018.4 hPa | 0 mm | - | 671 W/m² | - |
| 1777491686 | 17.78° C | 52% | 1018.4 hPa | 0 mm | - | 711 W/m² | - |
| 1777491383 | 17.78° C | 51% | 1018.4 hPa | 0 mm | - | 720 W/m² | - |
| 1777491080 | 17.78° C | 56% | 1018.5 hPa | 0 mm | - | 658 W/m² | - |
| 1777490775 | 18.33° C | 53% | 1018.5 hPa | 0 mm | - | 679 W/m² | - |
| 1777490473 | 17.78° C | 51% | 1018.8 hPa | 0 mm | - | 602 W/m² | - |
| 1777490169 | 17.22° C | 54% | 1018.7 hPa | 0 mm | - | 824 W/m² | - |
| 1777489866 | 17.22° C | 52% | 1018.6 hPa | 0 mm | - | 803 W/m² | - |
* Rain latest hour (hover to see other rain measurements)
** Current wind speed in m/s (hover to see current wind gust speed)